| time (UTC) | temp F | wind direction | speed MPH | gust MPH | rain 1hr in | rain 24hr in | rain mn in | humidity % | barometer mb |
| 20260505031520 | 63 | 243 | 0.0 | 2.0 | 0.00 | 0.00 | 0.00 | 58 | 1011.4 |
| 20260505030020 | 64 | 241 | 1.0 | 2.0 | 0.00 | 0.00 | 0.00 | 57 | 1011.3 |
| 20260505024520 | 64 | 241 | 1.0 | 3.0 | 0.00 | 0.00 | 0.00 | 56 | 1011.5 |
| 20260505023021 | 65 | 240 | 1.0 | 2.0 | 0.00 | 0.00 | 0.00 | 56 | 1011.5 |
| 20260505021519 | 66 | 236 | 1.0 | 3.0 | 0.00 | 0.00 | 0.00 | 55 | 1011.4 |
| 20260505020027 | 66 | 256 | 0.0 | 2.0 | 0.00 | 0.00 | 0.00 | 55 | 1011.4 |
| 20260505014531 | 67 | 223 | 0.0 | 3.0 | 0.00 | 0.00 | 0.00 | 54 | 1011.2 |
| 20260505013023 | 67 | 231 | 2.0 | 8.0 | 0.00 | 0.00 | 0.00 | 54 | 1011.3 |
| 20260505011520 | 68 | 221 | 0.0 | 5.0 | 0.00 | 0.00 | 0.00 | 53 | 1011.1 |
| 20260505010017 | 68 | 204 | 1.0 | 10.0 | 0.00 | 0.00 | 0.00 | 55 | 1011.0 |
| 20260505004516 | 68 | 235 | 1.0 | 3.0 | 0.00 | 0.00 | 0.00 | 56 | 1011.0 |
| 20260505003023 | 69 | 220 | 0.0 | 2.0 | 0.00 | 0.00 | 0.00 | 55 | 1010.7 |
| 20260505001515 | 70 | 233 | 1.0 | 6.0 | 0.00 | 0.00 | 0.00 | 55 | 1010.7 |
| 20260505000015 | 70 | 130 | 1.0 | 5.0 | 0.00 | 0.00 | 0.00 | 55 | 1010.8 |
| 20260504234514 | 71 | 233 | 0.0 | 3.0 | 0.00 | 0.00 | 0.00 | 52 | 1010.7 |
| 20260504233016 | 72 | 143 | 1.0 | 9.0 | 0.00 | 0.00 | 0.00 | 50 | 1010.6 |
| 20260504231517 | 73 | 238 | 2.0 | 5.0 | 0.00 | 0.00 | 0.00 | 48 | 1010.6 |
| 20260504230013 | 74 | 271 | 2.0 | 6.0 | 0.00 | 0.00 | 0.00 | 47 | 1010.4 |
| 20260504224517 | 74 | 102 | 1.0 | 6.0 | 0.00 | 0.00 | 0.00 | 48 | 1010.4 |
| 20260504223015 | 74 | 238 | 2.0 | 8.0 | 0.00 | 0.00 | 0.00 | 49 | 1010.5 |
| 20260504221509 | 74 | 145 | 1.0 | 4.0 | 0.00 | 0.00 | 0.00 | 52 | 1010.6 |
| 20260504220010 | 74 | 258 | 0.0 | 4.0 | 0.00 | 0.00 | 0.00 | 49 | 1010.7 |
| 20260504214507 | 74 | 214 | 2.0 | 4.0 | 0.00 | 0.00 | 0.00 | 49 | 1010.8 |
| 20260504213018 | 75 | 232 | 1.0 | 7.0 | 0.00 | 0.00 | 0.00 | 50 | 1010.8 |
| 20260504211513 | 75 | 284 | 1.0 | 4.0 | 0.00 | 0.00 | 0.00 | 44 | 1010.8 |
| 20260504210005 | 75 | 137 | 2.0 | 15.0 | 0.00 | 0.00 | 0.00 | 48 | 1010.9 |
| 20260504204503 | 76 | 253 | 2.0 | 11.0 | 0.00 | 0.00 | 0.00 | 44 | 1011.0 |
| 20260504203001 | 77 | 214 | 2.0 | 13.0 | 0.00 | 0.00 | 0.00 | 49 | 1011.2 |
| 20260504201612 | 75 | 146 | 3.0 | 7.0 | 0.00 | 0.00 | 0.00 | 49 | 1011.3 |
| 20260504200057 | 74 | 239 | 1.0 | 4.0 | 0.00 | 0.00 | 0.00 | 49 | 1011.6 |
| 20260504194557 | 75 | 204 | 1.0 | 8.0 | 0.00 | 0.00 | 0.00 | 50 | 1012.0 |
| 20260504193100 | 75 | 227 | 1.0 | 5.0 | 0.00 | 0.00 | 0.00 | 49 | 1012.2 |
| 20260504191607 | 75 | 144 | 2.0 | 9.0 | 0.00 | 0.00 | 0.00 | 50 | 1012.3 |
| 20260504190059 | 73 | 223 | 1.0 | 5.0 | 0.00 | 0.00 | 0.00 | 52 | 1012.7 |
| 20260504184551 | 73 | 261 | 1.0 | 7.0 | 0.00 | 0.00 | 0.00 | 50 | 1012.8 |
| 20260504183042 | 73 | 204 | 1.0 | 4.0 | 0.00 | 0.00 | 0.00 | 48 | 1013.1 |
| 20260504181541 | 73 | 282 | 2.0 | 8.0 | 0.00 | 0.00 | 0.00 | 49 | 1013.3 |
| 20260504180040 | 72 | 260 | 1.0 | 6.0 | 0.00 | 0.00 | 0.00 | 50 | 1013.5 |
| 20260504174543 | 72 | 214 | 1.0 | 10.0 | 0.00 | 0.00 | 0.00 | 53 | 1013.6 |
| 20260504173035 | 73 | 270 | 2.0 | 6.0 | 0.00 | 0.00 | 0.00 | 56 | 1013.7 |
| 20260504171537 | 72 | 273 | 1.0 | 8.0 | 0.00 | 0.00 | 0.00 | 52 | 1014.0 |
| 20260504081504 | 43 | 258 | 0.0 | 0.0 | 0.00 | 0.00 | 0.00 | 91 | 1016.0 |
| 20260504070106 | 43 | 258 | 0.0 | 0.0 | 0.00 | 0.00 | 0.00 | 91 | 1016.0 |
| 20260504044546 | 45 | 258 | 0.0 | 0.0 | 0.00 | 0.00 | 0.00 | 88 | 1016.2 |
| 20260504043047 | 45 | 258 | 0.0 | 0.0 | 0.00 | 0.00 | 0.00 | 87 | 1016.1 |
| 20260504041542 | 46 | 258 | 0.0 | 1.0 | 0.00 | 0.00 | 0.00 | 86 | 1016.0 |
| 20260504040041 | 46 | 258 | 0.0 | 2.0 | 0.00 | 0.00 | 0.00 | 87 | 1016.0 |
| 20260504034538 | 47 | 258 | 0.0 | 0.0 | 0.00 | 0.00 | 0.00 | 85 | 1015.9 |
| 20260504033037 | 48 | 258 | 0.0 | 2.0 | 0.00 | 0.00 | 0.00 | 82 | 1015.8 |